Flag for Canada Weather past 2 weeks in Sarnia, Ontario, Canada

Now
50 °F

Overcast.


Feels Like: 43 °F
Forecast: 45 / 58 °F
Wind: 21 mph from Northwest

Location: Sarnia Airport

Current Time: Sep 22, 2014 at 2:27:33 AM

Latest Report: Sep 22, 2014 at 1:00 AM


Visibility: 9 mi

Pressure: 29.97 "Hg

Humidity: 76%

Dew point: 43 °F

Location of SarniaLocation

Historic Weather in Sarnia — Graph

°F

Sarnia temperature yesterday

Maximum temperature yesterday: 68 °F (at 2:00 PM)
Minimum temperature yesterday: 52 °F (at 11:00 PM)
Average temperature yesterday: 62 °F

Past Weeks' High & Low Weather Summary

 TemperatureHumidityPressure
High79 °F (Sep 9, 5:00 PM)100% (Sep 10, 2:00 AM)30.36 "Hg (Sep 10, 2:00 AM)
Low39 °F (Sep 14, 6:00 AM)41% (Sep 7, 6:00 PM)29.55 "Hg (Sep 10, 11:00 PM)
Average58 °F79%30.06 "Hg
* Reported Sep 7 1:00 AM — Sep 22 1:00 AM, Sarnia, Weather by CustomWeather, © 2014

Note: Actual official high and low records may vary slightly from our data, if they occured in-between our weather recording intervals... More about our weather records

Advertising

Sarnia weather history for previous 24 hours

 ConditionsComfort  
Time TempWeatherWind HumidityBarometerVisibility
1:00 AM
Sep 22
50 °FOvercast.21 mph76%29.97 "Hg9 mi
12:00 AM52 °FOvercast.18 mph77%29.96 "Hg9 mi
11:00 PM
Sep 21
52 °FOvercast.26 mph82%29.94 "Hg9 mi
10:00 PM54 °FMostly cloudy.28 mph82%29.90 "Hg9 mi
9:00 PM54 °FLight rain. Mostly cloudy.25 mph82%29.86 "Hg9 mi
8:48 PM54 °FLight rain. Overcast.20 mph82%29.86 "Hg9 mi
8:00 PM54 °FOvercast.24 mph82%29.83 "Hg9 mi
7:00 PM54 °FOvercast.25 mph88%29.80 "Hg9 mi
6:00 PM55 °FMostly cloudy.23 mph88%29.74 "Hg9 mi
5:00 PM55 °FLight rain. Mostly cloudy.25 mph88%29.69 "Hg9 mi
4:00 PM63 °FCloudy.9 mph68%29.64 "Hg9 mi
3:00 PM64 °FOvercast.16 mph64%29.63 "Hg9 mi
2:00 PM68 °FOvercast.12 mph56%29.61 "Hg9 mi
1:00 PM66 °FOvercast.10 mph60%29.63 "Hg9 mi
12:00 PM64 °FMostly cloudy.12 mph73%29.64 "Hg9 mi
11:03 AM64 °FCloudy.15 mph73%29.63 "Hg9 mi
11:00 AM64 °FMostly cloudy.12 mph73%29.63 "Hg9 mi
10:00 AM64 °FPartly sunny.17 mph83%29.60 "Hg9 mi
9:03 AM66 °FPartly sunny.10 mph83%29.58 "Hg9 mi
8:03 AM64 °FPassing clouds.9 mph94%29.57 "Hg9 mi
7:00 AM64 °FLight rain. Fog.7 mph94%29.56 "Hg3 mi
6:00 AM64 °FLight rain. Fog.8 mph94%29.58 "Hg3 mi
5:56 AM64 °FLight rain. Fog.8 mph94%29.58 "Hg3 mi
5:00 AM64 °FFog.9 mph94%29.62 "Hg5 mi
4:00 AM64 °FPassing clouds.7 mph94%29.65 "Hg9 mi
3:01 AM64 °FFog.9 mph94%29.68 "Hg6 mi
2:48 AM64 °FFog.9 mph94%29.69 "Hg5 mi
2:00 AM64 °FLow clouds.12 mph94%29.72 "Hg9 mi
Weather by CustomWeather, © 2014

See weather overviewHow to use our weather pages